FENGYUN 1C DEB, 30053

Orbit data source: Space-Track

FENGYUN 1C DEB, 30053 is space debris in SSO originally from a launch on Mon, 10 May 1999 UTC launched from the Taiyaun Space Center, China (TSC). Fengyun 1C debris stems from the Chinese weather satellite Fengyun-1C, which was intentionally destroyed by a Chinese anti-satellite missile in 2007. This event dramatically increased the amount of space debris, with thousands of trackable fragments posing hazards to satellites and human spaceflight. The Fengyun 1C debris cloud has become a focal point in discussions about space sustainability and the need for international regulations to prevent the creation of new debris.

Loading next visibility...
Identifier
30053, 1999-025PE
Orbit
SSO
Country
Flag of CNCN / PRC
Related business
Manufacturer
Unknown
Mission
Spacecraft
Bus & Motor
Unknown
Mass
Unknown
Launch date (UTC)
1999-05-10 (27 years ago)
Launch vehicle
Unknown
Launch site
Taiyaun Space Center, China (TSC)
Object type
Payload
Rocket body
Debris
Shape & HBR
Unknown shape, 0.1 m
Radar Cross Section
Medium (>0.1 m² and <1 m²)

Expand to show TLE details & history
Last TLE update: 1 day ago

TLE from 1 day ago
0 FENGYUN 1C DEB
1 30053U 99025PE  26237.91918431  .00001664  00000-0  80464-3 0  9994
2 30053  98.6028  39.0158 0322695 346.4636 166.7776 13.95969414985587
Epoch: 2026-08-25T22:03Z
TLE epoch observation values (Epoch: 2026-08-25T22:03:37.524Z)
Latitude
25.6617°
Longitude
-81.92312°
Altitude
1,140.177 km
Speed
7.169 km/s
True Right ascension
14h 52m 39s
True Declination
25° 32' 04"
Sunlit
Object was in daylight at epoch
Visualization orbit readout
Latitude
Unknown
Longitude
Unknown
Altitude
Unknown
Speed
Unknown
Apparent Right ascension
Unknown
Apparent Declination
Unknown
Sunlit
N/A
Visualization observer readout
Local Sidereal Time
14:40:29
Azimuth
Unknown
Elevation
Unknown
Doppler factor
Unknown
Orbital elements
Apogee altitude
1,139.989 km
Perigee altitude
669.945 km
Semi-major axis
7,283.104 km
Eccentricity
0.03227
Inclination
98.6028°
RAAN
39.0158°
Arg. of periapsis
346.4636°
True anomaly
167.59138°
Mean anomaly
166.7776°
Eccentric anomaly
167.18761°
Mean motion
3.49195 °/min
Orbital period
103.09 mins
BSTAR
0.00080464
Loading maneuver chart data...
Computing Atmospheric mass density...
Loading historical data...
Loading historical data...
Loading historical data...
Loading historical data...
Loading historical data...
Loading historical data...
Loading historical data...

Documentation

Showing up to 5 results
|